DW9470 Weather Reports


time (UTC)temp
C
wind
direction
speed
KPH
gust
KPH
rain 1hr
cm
rain 24hr
cm
rain mn
cm
humidity
%
barometer
mb
20260507060510 5 161 0.0 0.0 0.00 0.00 0.00 54 1014.9
20260507060011 5 160 0.0 0.0 0.00 0.00 0.00 52 1015.0
20260507055510 5 165 0.0 0.0 0.00 0.00 0.00 53 1015.0
20260507055011 5 160 0.0 0.0 0.00 0.00 0.00 54 1014.9
20260507054511 5 63 0.0 0.0 0.00 0.00 0.00 54 1015.0
20260507054010 5 58 0.0 0.0 0.00 0.00 0.00 53 1014.9
20260507053011 6 58 0.0 0.0 0.00 0.00 0.00 52 1015.0
20260507052510 5 58 0.0 0.0 0.00 0.00 0.00 51 1014.9
20260507052010 5 58 0.0 0.0 0.00 0.00 0.00 50 1015.0
20260507051510 5 58 0.0 0.0 0.00 0.00 0.00 52 1015.0
20260507051012 5 58 0.0 0.0 0.00 0.00 0.00 52 1014.9
20260507050510 5 58 0.0 0.0 0.00 0.00 0.00 52 1015.0
20260507050011 5 58 0.0 0.0 0.00 0.00 0.00 52 1015.0
20260507045510 5 73 0.0 0.0 0.00 0.00 0.00 52 1015.0
20260507045011 5 72 0.0 0.0 0.00 0.00 0.00 51 1014.9
20260507044510 5 51 0.0 0.0 0.00 0.00 0.00 51 1015.0
20260507044011 5 218 0.0 0.0 0.00 0.00 0.00 47 1015.0
20260507043511 5 212 0.0 0.0 0.00 0.00 0.00 48 1015.0
20260507042511 5 133 0.0 0.0 0.00 0.00 0.00 48 1015.1
20260507042011 5 131 0.0 0.0 0.00 0.00 0.00 47 1015.1
20260507041510 5 146 0.0 0.0 0.00 0.00 0.00 47 1015.2
20260507041012 5 149 0.0 0.0 0.00 0.00 0.00 47 1015.2
20260507040511 5 148 0.0 0.0 0.00 0.00 0.00 47 1015.2
20260507035511 5 207 0.0 0.0 0.00 0.00 0.00 46 1015.3
20260507035011 5 210 0.0 0.0 0.00 0.00 0.00 46 1015.4
20260507034511 5 140 0.0 0.0 0.00 0.00 0.00 46 1015.4
20260507034010 5 139 0.0 0.0 0.00 0.00 0.00 45 1015.4
20260507033011 6 134 0.0 0.0 0.00 0.00 0.00 44 1015.4
20260507032511 6 143 0.0 0.0 0.00 0.00 0.00 45 1015.5
20260507032011 6 144 0.0 0.0 0.00 0.00 0.00 44 1015.5
20260507031512 6 145 0.0 0.0 0.00 0.00 0.00 45 1015.5
20260507031011 6 158 0.0 0.0 0.00 0.00 0.00 44 1015.5
20260507030511 6 163 0.0 0.0 0.00 0.00 0.00 43 1015.5
20260507030011 6 203 0.0 0.0 0.00 0.00 0.00 44 1015.6
20260507025511 7 164 0.0 0.0 0.00 0.00 0.00 43 1015.6
20260507025011 7 164 0.0 0.0 0.00 0.00 0.00 43 1015.6
20260507024511 7 163 0.0 0.0 0.00 0.00 0.00 43 1015.6
20260507024011 7 165 0.0 0.0 0.00 0.00 0.00 42 1015.6
20260507023511 7 267 0.0 0.0 0.00 0.00 0.00 44 1015.6
20260507023012 8 267 0.0 0.0 0.00 0.00 0.00 43 1015.6
20260507022511 8 267 0.0 0.0 0.00 0.00 0.00 40 1015.7
20260507022011 8 267 0.0 0.0 0.00 0.00 0.00 41 1015.7
20260507021011 8 288 0.0 0.0 0.00 0.00 0.00 40 1015.6
20260507015511 8 288 0.0 0.0 0.00 0.00 0.00 40 1015.6
20260507014511 9 263 0.0 0.0 0.00 0.00 0.00 39 1015.6
20260507014011 10 306 0.0 0.0 0.00 0.00 0.00 38 1015.5
20260507013011 10 333 0.0 0.0 0.00 0.00 0.00 38 1015.5
20260507012511 10 291 0.0 0.0 0.00 0.00 0.00 37 1015.5
20260507012011 10 298 0.0 0.0 0.00 0.00 0.00 37 1015.6
20260507011011 10 277 0.0 0.0 0.00 0.00 0.00 37 1015.5
20260507010511 10 283 0.0 0.0 0.00 0.00 0.00 36 1015.5
20260507005510 11 278 0.0 0.0 0.00 0.00 0.00 35 1015.5
20260507004510 12 255 0.0 0.0 0.00 0.00 0.00 34 1015.5
20260507003510 12 300 1.6 1.6 0.00 0.00 0.00 33 1015.6
20260507003010 12 50 3.2 1.6 0.00 0.00 0.00 33 1015.5
20260507002510 12 290 0.0 1.6 0.00 0.00 0.00 33 1015.5
20260507002010 12 309 0.0 1.6 0.00 0.00 0.00 32 1015.6
20260507001510 12 46 0.0 1.6 0.00 0.00 0.00 33 1015.7
20260507000510 12 277 0.0 1.6 0.00 0.00 0.00 32 1015.7
20260507000010 12 303 0.0 1.6 0.00 0.00 0.00 32 1015.8
20260506235510 12 58 0.0 3.2 0.00 0.00 0.00 32 1015.8
20260506235010 13 293 0.0 3.2 0.00 0.00 0.00 32 1015.9
20260506234510 13 328 3.2 1.6 0.00 0.00 0.00 33 1015.9
20260506233510 13 351 0.0 1.6 0.00 0.00 0.00 32 1016.0
20260506232510 12 245 3.2 1.6 0.00 0.00 0.00 33 1016.1
20260506232010 12 281 0.0 1.6 0.00 0.00 0.00 33 1016.1
20260506231510 12 289 0.0 1.6 0.00 0.00 0.00 32 1016.1
20260506230510 13 304 0.0 1.6 0.00 0.00 0.00 32 1016.2
20260506230010 12 295 8.0 1.6 0.00 0.00 0.00 32 1016.2
20260506225510 12 310 0.0 1.6 0.00 0.00 0.00 33 1016.2
20260506224510 12 330 4.8 1.6 0.00 0.00 0.00 34 1016.3
20260506224010 12 30 1.6 1.6 0.00 0.00 0.00 32 1016.2
20260506223510 12 318 1.6 1.6 0.00 0.00 0.00 33 1016.2
20260506223010 12 312 0.0 1.6 0.00 0.00 0.00 34 1016.3
20260506222510 12 53 0.0 1.6 0.00 0.00 0.00 33 1016.3
20260506222010 12 286 1.6 3.2 0.00 0.00 0.00 33 1016.3
20260506220510 12 287 4.8 1.6 0.00 0.00 0.00 32 1016.5
20260506220010 12 52 0.0 1.6 0.00 0.00 0.00 33 1016.5
20260506215510 12 41 0.0 1.6 0.00 0.00 0.00 33 1016.5
20260506215010 12 314 0.0 1.6 0.00 0.00 0.00 32 1016.5
20260506214510 12 316 1.6 1.6 0.00 0.00 0.00 32 1016.5
20260506214010 12 303 8.0 1.6 0.00 0.00 0.00 32 1016.6
20260506213011 12 18 3.2 1.6 0.00 0.00 0.00 32 1016.6
20260506212010 12 317 4.8 1.6 0.00 0.00 0.00 34 1016.7
20260506211511 12 273 11.3 3.2 0.00 0.00 0.00 33 1016.8
20260506211010 13 285 17.7 3.2 0.00 0.00 0.00 33 1016.9
20260506210510 13 284 11.3 3.2 0.00 0.00 0.00 32 1016.9
20260506210010 12 23 3.2 1.6 0.00 0.00 0.00 35 1016.9
20260506205510 12 323 4.8 1.6 0.00 0.00 0.00 34 1016.9
20260506205010 12 271 9.7 1.6 0.00 0.00 0.00 34 1017.1
20260506204510 12 280 3.2 1.6 0.00 0.00 0.00 34 1017.2
20260506204010 12 283 11.3 3.2 0.00 0.00 0.00 33 1017.4
20260506203511 12 23 6.4 3.2 0.00 0.00 0.00 33 1017.5
20260506203011 12 314 0.0 1.6 0.00 0.00 0.00 33 1017.4
20260506202510 12 281 6.4 1.6 0.00 0.00 0.00 33 1017.4
20260506202010 12 278 0.0 1.6 0.00 0.00 0.00 32 1017.6
20260506201511 12 336 3.2 1.6 0.00 0.00 0.00 34 1017.5
20260506201010 12 6 3.2 3.2 0.00 0.00 0.00 33 1017.5
20260506200011 12 9 0.0 1.6 0.00 0.00 0.00 34 1017.7
20260506195512 11 236 0.0 1.6 0.00 0.00 0.00 36 1017.6
20260506195011 11 314 3.2 1.6 0.00 0.00 0.00 34 1017.7
20260506194510 11 323 6.4 1.6 0.00 0.00 0.00 34 1017.8
20260506194010 12 300 3.2 1.6 0.00 0.00 0.00 33 1017.8
20260506193511 12 33 3.2 1.6 0.00 0.00 0.00 35 1017.7
20260506192510 12 307 11.3 1.6 0.00 0.00 0.00 34 1017.8
20260506192010 11 315 6.4 1.6 0.00 0.00 0.00 35 1017.8
20260506191011 11 333 6.4 1.6 0.00 0.00 0.00 35 1018.0
20260506190511 10 293 0.0 3.2 0.00 0.00 0.00 36 1018.1
20260506185510 10 329 16.1 1.6 0.00 0.00 0.00 36 1018.2
20260506185011 10 321 4.8 1.6 0.00 0.00 0.00 35 1018.1
20260506184510 10 345 4.8 1.6 0.00 0.00 0.00 36 1018.1
20260506184010 10 310 1.6 3.2 0.00 0.00 0.00 35 1018.2
20260506183511 11 288 17.7 3.2 0.00 0.00 0.00 36 1018.2
20260506183011 10 242 6.4 1.6 0.00 0.00 0.00 36 1018.3
20260506182511 10 338 1.6 3.2 0.00 0.00 0.00 36 1018.3
20260506182012 11 280 14.5 1.6 0.00 0.00 0.00 38 1018.3
20260506181510 10 266 6.4 1.6 0.00 0.00 0.00 36 1018.4
20260506180511 10 300 1.6 1.6 0.00 0.00 0.00 37 1018.4
20260506180011 10 291 6.4 1.6 0.00 0.00 0.00 37 1018.5
20260506175511 10 217 6.4 3.2 0.00 0.00 0.00 36 1018.5
20260506175011 10 334 17.7 3.2 0.00 0.00 0.00 37 1018.5
20260506174511 10 283 0.0 1.6 0.00 0.00 0.00 37 1018.5
20260506174011 10 162 3.2 1.6 0.00 0.00 0.00 38 1018.6
20260506173511 9 326 3.2 1.6 0.00 0.00 0.00 40 1018.6
20260506172511 9 354 4.8 1.6 0.00 0.00 0.00 40 1018.7
20260506171511 8 35 3.2 1.6 0.00 0.00 0.00 41 1018.7
20260506171011 8 341 3.2 1.6 0.00 0.00 0.00 41 1018.9
20260506170511 8 286 3.2 1.6 0.00 0.00 0.00 42 1018.9
20260506170012 8 359 6.4 1.6 0.00 0.00 0.00 42 1018.8
20260506165511 9 278 4.8 1.6 0.00 0.00 0.00 41 1018.7
20260506165011 8 217 9.7 1.6 0.00 0.00 0.00 41 1018.6
20260506164511 8 211 0.0 1.6 0.00 0.00 0.00 42 1018.6
20260506164011 9 322 8.0 1.6 0.00 0.00 0.00 41 1018.7
20260506163511 9 316 4.8 1.6 0.00 0.00 0.00 42 1018.6
20260506163011 9 47 0.0 1.6 0.00 0.00 0.00 40 1018.6
20260506162511 10 258 9.7 1.6 0.00 0.00 0.00 41 1018.6
20260506162011 9 51 3.2 1.6 0.00 0.00 0.00 41 1018.5
20260506161511 9 40 0.0 1.6 0.00 0.00 0.00 41 1018.6
20260506161011 9 30 1.6 1.6 0.00 0.00 0.00 41 1018.5
20260506160511 8 294 4.8 1.6 0.00 0.00 0.00 41 1018.5
20260506160012 8 308 3.2 1.6 0.00 0.00 0.00 42 1018.5
20260506155511 8 312 4.8 1.6 0.00 0.00 0.00 42 1018.5
20260506155011 8 300 11.3 1.6 0.00 0.00 0.00 43 1018.5
20260506154511 9 354 3.2 1.6 0.00 0.00 0.00 41 1018.6
20260506154011 9 44 6.4 1.6 0.00 0.00 0.00 40 1018.5
20260506153511 9 329 6.4 3.2 0.00 0.00 0.00 41 1018.5
20260506153011 8 250 6.4 1.6 0.00 0.00 0.00 45 1018.5
20260506152511 8 298 4.8 1.6 0.00 0.00 0.00 45 1018.6
20260506152011 8 297 3.2 1.6 0.00 0.00 0.00 44 1018.5
20260506151511 8 41 6.4 1.6 0.00 0.00 0.00 43 1018.5
20260506151010 9 314 8.0 1.6 0.00 0.00 0.00 45 1018.5
20260506150510 8 323 0.0 1.6 0.00 0.00 0.00 45 1018.4
20260506150011 8 309 3.2 1.6 0.00 0.00 0.00 46 1018.3
20260506145510 8 337 3.2 1.6 0.00 0.00 0.00 47 1018.4
20260506145010 8 313 4.8 1.6 0.00 0.00 0.00 47 1018.4
20260506144510 7 248 1.6 1.6 0.00 0.00 0.00 48 1018.4
20260506144011 7 300 3.2 1.6 0.00 0.00 0.00 48 1018.4
20260506143510 7 298 0.0 1.6 0.00 0.00 0.00 49 1018.5
20260506142510 7 272 8.0 1.6 0.00 0.00 0.00 49 1018.6
20260506141510 7 229 0.0 0.0 0.00 0.00 0.00 47 1018.5
20260506141010 7 271 3.2 1.6 0.00 0.00 0.00 49 1018.4
20260506140510 6 240 0.0 1.6 0.00 0.00 0.00 48 1018.5
20260506140010 7 56 0.0 0.0 0.00 0.00 0.00 51 1018.5
20260506135510 7 352 0.0 0.0 0.00 0.00 0.00 51 1018.5
20260506135010 6 280 0.0 0.0 0.00 0.00 0.00 53 1018.5
20260506134510 6 68 0.0 0.0 0.00 0.00 0.00 55 1018.6
20260506134011 6 290 0.0 0.0 0.00 0.00 0.00 56 1018.5
20260506133510 5 1 0.0 0.0 0.00 0.00 0.00 57 1018.6
20260506132510 5 40 1.6 0.0 0.00 0.00 0.00 61 1018.3
20260506132010 3 284 1.6 0.0 0.00 0.00 0.00 65 1018.4
20260506131510 3 345 0.0 0.0 0.00 0.00 0.00 66 1018.4
20260506130510 2 276 0.0 0.0 0.00 0.00 0.00 66 1018.5
20260506130010 2 327 0.0 0.0 0.00 0.00 0.00 67 1018.4
20260506125510 2 18 0.0 0.0 0.00 0.00 0.00 68 1018.4
20260506125010 2 339 0.0 0.0 0.00 0.00 0.00 69 1018.4
20260506124011 1 309 0.0 0.0 0.00 0.00 0.00 69 1018.1
20260506123511 1 281 0.0 0.0 0.00 0.00 0.00 70 1018.0
20260506123010 -17 0.0 41.8 0.00 0.00 0.00 1018.0
20260506122510 -17 0.0 41.8 0.00 0.00 0.00 1018.0
20260506122010 -17 0.0 41.8 0.00 0.00 0.00 1017.9
20260506121510 -17 0.0 41.8 0.00 0.00 0.00 1017.9
20260506121010 -17 0.0 41.8 0.00 0.00 0.00 1017.8
20260506120012 -17 0.0 41.8 0.00 0.00 0.00 1017.7
20260506115510 -17 0.0 41.8 0.00 0.00 0.00 1017.5
20260506115011 -17 0.0 41.8 0.00 0.00 0.00 1017.5
20260506114510 -17 0.0 41.8 0.00 0.00 0.00 1017.4
20260506114010 -17 0.0 41.8 0.00 0.00 0.00 1017.4
20260506113511 -17 0.0 41.8 0.00 0.00 0.00 1017.3
20260506112510 -17 0.0 41.8 0.00 0.00 0.00 1017.3
20260506112010 -17 0.0 41.8 0.00 0.00 0.00 1017.2
20260506111011 -17 0.0 41.8 0.00 0.00 0.00 1017.0
20260506110510 -17 0.0 41.8 0.00 0.00 0.00 1017.0
20260506110011 -17 0.0 41.8 0.00 0.00 0.00 1017.0
20260506105511 -17 0.0 41.8 0.00 0.00 0.00 1016.9
20260506105011 -17 0.0 41.8 0.00 0.00 0.00 1016.9
20260506104510 -17 0.0 41.8 0.00 0.00 0.00 1016.9
20260506104010 -17 0.0 41.8 0.00 0.00 0.00 1016.9
20260506103511 -1 272 0.0 0.0 0.00 0.00 0.00 72 1016.9
20260506103010 -1 272 0.0 0.0 0.00 0.00 0.00 72 1016.9
20260506102510 -1 273 0.0 0.0 0.00 0.00 0.00 72 1016.9
20260506102010 -1 287 0.0 0.0 0.00 0.00 0.00 72 1016.9
20260506101511 -1 287 0.0 0.0 0.00 0.00 0.00 72 1016.9
20260506101010 0 287 0.0 0.0 0.00 0.00 0.00 72 1016.9
20260506095511 0 288 3.2 0.0 0.00 0.00 0.00 70 1017.0
20260506095011 0 314 0.0 0.0 0.00 0.00 0.00 69 1016.8
20260506094510 0 314 0.0 0.0 0.00 0.00 0.00 69 1016.7
20260506093511 0 316 0.0 0.0 0.00 0.00 0.00 69 1016.4
20260506092011 0 63 0.0 0.0 0.00 0.00 0.00 69 1016.3
20260506091511 0 63 0.0 0.0 0.00 0.00 0.00 69 1016.2
20260506091010 0 63 0.0 0.0 0.00 0.00 0.00 68 1016.3
20260506090011 0 62 0.0 0.0 0.00 0.00 0.00 68 1016.2
20260506085511 0 61 0.0 0.0 0.00 0.00 0.00 67 1016.3
20260506085012 0 260 0.0 0.0 0.00 0.00 0.00 67 1016.3
20260506084511 0 266 0.0 0.0 0.00 0.00 0.00 67 1016.5
20260506084011 0 281 0.0 0.0 0.00 0.00 0.00 67 1016.4
20260506083511 1 281 0.0 0.0 0.00 0.00 0.00 66 1016.4
20260506083011 1 281 0.0 0.0 0.00 0.00 0.00 65 1016.4
20260506082511 1 262 0.0 0.0 0.00 0.00 0.00 65 1016.3
20260506082011 1 262 0.0 0.0 0.00 0.00 0.00 64 1016.1
20260506081511 2 231 0.0 0.0 0.00 0.00 0.00 64 1016.0
20260506081011 2 231 0.0 0.0 0.00 0.00 0.00 63 1015.9
20260506080510 2 348 0.0 0.0 0.00 0.00 0.00 64 1016.0
20260506073511 2 81 0.0 0.0 0.00 0.00 0.00 62 1015.8
20260506073011 2 81 0.0 0.0 0.00 0.00 0.00 62 1015.8
20260506072511 2 79 0.0 0.0 0.00 0.00 0.00 61 1015.7
20260506072011 2 103 0.0 0.0 0.00 0.00 0.00 61 1015.7
20260506071511 2 354 0.0 0.0 0.00 0.00 0.00 61 1015.7
20260506070511 2 237 0.0 0.0 0.00 0.00 0.00 61 1015.6
20260506062511 2 281 0.0 0.0 0.00 0.00 0.00 59 1015.8
20260506062011 2 281 0.0 0.0 0.00 0.00 0.00 59 1015.7
20260506061511 3 276 0.0 0.0 0.00 0.00 0.00 58 1015.7
20260506061011 3 307 0.0 0.0 0.00 0.00 0.00 57 1015.7